星链-1742 (STARLINK-1742 )

导读 | 豆包AI

STARLINK-1742是美国SpaceX公司星链(Starlink)星座中的一员,于2020年9月3日发射升空。星链项目旨在通过近地轨道卫星星座,为全球尤其是偏远欠发达地区提供高速低延迟宽带互联网服务。作为星座组网卫星之一,STARLINK-1742承担着扩展星座覆盖范围、提升网络服务稳定性的作用,推动了星链全球互联网服务部署进程,是SpaceX打造卫星互联网组网的重要组成部分。

Basic Information
目录编号:
46376
目录名称:
STARLINK-1742
国际标识:
2020-062BD
轨道中心:
EARTH
卫星名称:
星链-1742
卫星全名:
星链-1742 (STARLINK-1742 )
卫星状态:
已陨落 最后检测时间 2026-04-16
发射日期:
2020-09-03 UTC
国别 :
美国 (US)
星等 :
--
Orbit Information
数据来源 国际轨道数据
星历时间: 2026-04-17T01:49:43+0800
轨道信息已过期15天
半长轴: 6545.475km
偏心率: 0.0004851
轨道倾角: 53.009°
近地点辐角 285.584°
升交点赤经 59.752°
平近点角 74.467°
近地点: 164.162km
远地点: 170.514km
周期: 87.836分钟
每日圈数: 16.39423
Detailed Information
固有亮度:
5
最大亮度:
2.5
卫星平台:
Starlink V1.0
覆盖范围:
全球
运营商:
太空探索技术公司
运营商所在国:
美国
制造商(研发单位):
太空探索技术公司
制造商所在国:
美国
使用方式:
暂无
Satellite Introduction
星链(Starlink)计划是由太空探索技术公司(SpaceX)提出的一个巨型低轨卫星互联网星座项目,计划在2019年至2024年间在太空搭建由约1.2万颗卫星组成的“星链”网络,其中1584颗将部署在地球上空550千米处的近地轨道,并从2020年开始工作。该卫星仍在工作。